Temperature
24 24 23 23 22 22 21 21 21 21 20 20 20 19 19 19 19 19 19 19 19 19 19 18 18 18 18 18 18 18 18 18 18 18 18 18 18 18 18 18 18 18 18
24 23 23 23 22 22 22 21 21 21 20 20 20 20 20 19 19 19 19 19 19 19 19 19 18 18 18 18 18 18 18 18 18 18 17 18 18 18 18 18 18 18 18
24 24 23 23 23 22 22 22 21 21 21 20 20 20 19 19 19 19 19 19 19 19 19 19 18 18 18 18 18 18 18 18 18 18 17 17 18 18 18 18 18 18 18
24 24 24 23 23 23 22 22 22 21 21 20 20 20 20 19 20 20 19 19 19 19 19 18 18 18 18 18 18 18 18 18 18 18 17 17 17 17 18 18 18 18 18
24 24 24 24 23 23 22 22 22 21 21 20 20 20 20 20 20 19 19 19 19 19 18 18 18 18 18 18 18 18 18 18 18 18 18 17 17 17 17 17 18 18 18
25 24 24 24 23 23 22 22 22 21 21 21 20 20 20 20 19 19 19 19 19 19 19 18 18 18 18 18 18 18 18 18 17 17 17 17 17 17 17 17 17 17 18
25 24 24 23 23 23 22 22 22 21 21 21 20 20 20 20 20 19 19 19 19 19 19 19 18 18 18 18 18 18 18 18 17 17 17 17 17 17 17 17 17 17 17
25 24 24 24 23 23 23 22 22 22 21 21 21 20 20 20 19 19 19 19 19 19 19 19 18 18 18 18 18 18 18 18 17 17 17 17 17 17 17 17 17 17 17
25 25 24 24 24 23 23 23 22 22 21 21 21 20 20 20 19 19 19 19 19 19 18 18 18 18 18 18 18 18 17 17 17 17 17 17 17 17 17 17 16 16 16
25 24 24 24 24 24 23 23 22 22 22 21 21 20 20 20 19 19 19 19 18 18 18 18 18 18 18 18 18 17 17 17 17 17 17 17 16 16 16 16 16 16 16
24 24 24 24 23 23 23 22 22 21 21 21 21 20 20 19 19 19 18 18 18 18 18 18 18 18 17 17 17 17 17 17 17 17 17 17 16 16 16 16 16 16 16
24 24 23 23 23 22 22 22 22 21 21 21 20 20 19 19 19 19 18 18 18 18 18 18 17 17 17 17 17 17 17 17 17 17 16 16 16 16 16 16 16 16 15
24 23 23 23 22 22 22 22 21 21 20 20 20 19 19 19 19 18 18 18 18 18 17 17 17 17 17 17 17 17 16 16 16 16 16 16 16 16 16 16 15 15 15
23 23 23 22 22 22 22 21 21 20 20 20 19 19 19 19 19 18 18 18 18 17 17 17 17 17 17 16 16 16 16 16 16 16 16 16 15 15 15 15 15 15 14
23 23 22 22 22 22 21 21 21 20 20 20 19 19 19 18 18 18 18 17 17 17 17 16 16 16 16 16 16 16 16 16 16 15 15 15 15 15 15 15 14 14 14
22 22 22 22 22 22 21 21 20 20 20 19 19 19 18 18 18 17 17 17 17 16 16 16 16 16 16 16 16 16 15 15 15 15 15 14 14 14 14 14 14 14 13
22 22 22 22 22 21 21 20 20 19 19 19 18 18 18 18 17 17 17 16 16 16 16 16 16 15 15 15 15 15 15 15 15 14 14 14 14 14 13 13 13 13 13
22 22 21 21 21 20 20 20 19 19 19 18 18 17 17 17 17 16 16 16 16 16 15 15 15 15 15 15 14 14 15 14 14 14 14 13 13 13 13 13 13 12 12
22 22 21 21 20 20 19 19 19 18 18 18 17 17 17 16 16 16 16 15 15 15 15 15 14 14 14 14 14 14 14 14 13 13 13 13 13 12 12 12 12 12 11
22 21 21 20 20 19 19 19 18 18 18 17 17 17 16 16 16 15 15 15 15 15 14 14 14 14 14 13 13 13 14 13 13 13 12 12 12 12 11 11 11 11 11
21 21 20 20 19 19 18 18 18 18 17 17 17 16 16 16 16 15 15 15 15 14 14 14 13 13 13 13 13 13 13 13 12 12 12 11 11 11 11 11 11 10 10
20 20 19 19 18 18 18 18 17 17 17 16 16 16 15 15 15 15 14 14 14 14 14 13 13 13 13 13 12 12 12 12 12 11 11 11 11 10 10 10 10 10 10
19 19 19 18 17 17 17 17 17 16 16 16 15 15 15 15 14 14 14 14 14 14 13 13 13 12 12 12 12 12 11 11 11 11 11 10 10 10 10 10 10 10 9
19 18 18 18 17 17 17 17 16 16 16 15 15 15 15 14 14 14 14 13 13 13 13 13 12 12 12 12 11 11 11 11 11 10 10 10 10 10 9 9 9 9 9
18 18 18 17 17 16 16 16 16 15 15 15 15 14 14 14 14 13 13 13 13 13 13 12 12 12 12 11 11 11 11 11 10 10 10 10 9 9 9 9 9 9 8
17 17 17 17 16 16 15 15 15 15 15 15 14 14 14 13 13 13 13 13 12 12 12 12 12 11 11 11 11 10 10 10 10 10 9 9 9 9 9 8 8 8 8
Wind_Speed
13 13 14 15 13 12 12 12 11 9 8 5 5 4 4 4 4 6 10 11 10 10 8 4 4 4 3 4 4 3 2 2 1 0 3 4 3 3 4 5 5 7 11
12 13 13 14 14 14 13 12 12 11 9 7 5 4 4 4 4 5 8 11 11 10 8 6 4 4 3 4 3 3 2 2 2 2 0 3 4 3 3 3 4 5 6
19 18 17 16 15 15 15 14 12 11 10 8 5 3 2 1 2 4 5 7 10 10 8 7 6 5 5 4 4 4 4 3 2 2 3 2 3 3 3 3 3 3 3
15 16 17 17 17 16 14 13 12 11 10 9 7 7 6 5 6 5 5 5 9 9 9 8 7 6 4 5 5 4 4 4 3 2 3 3 4 2 3 3 2 2 3
18 18 18 18 16 15 14 12 11 11 10 10 10 9 7 6 4 4 5 6 5 7 8 8 6 5 4 5 5 4 4 4 4 3 3 2 2 3 3 4 4 2 2
16 16 14 12 12 12 12 12 12 11 11 10 10 10 9 7 6 6 6 5 4 4 5 6 6 5 5 5 5 5 5 4 4 4 3 3 3 3 3 4 4 3 3
16 15 14 14 13 14 13 12 12 10 10 10 10 9 9 8 8 7 6 5 4 4 5 5 5 5 5 5 4 4 5 5 4 5 4 4 4 3 3 3 3 3 3
15 16 16 16 15 15 13 12 13 11 11 11 10 8 8 6 6 6 5 5 5 5 5 6 6 6 5 5 4 4 5 4 5 5 4 3 3 3 3 3 3 2 2
15 16 16 16 15 15 15 14 13 11 11 11 9 8 8 7 6 5 5 5 5 5 5 5 5 5 5 5 4 3 4 4 4 4 3 3 3 3 3 2 3 3 2
12 13 14 15 14 13 12 11 11 11 10 10 9 8 7 6 5 5 5 5 4 4 4 4 5 5 4 4 3 2 2 2 2 2 3 3 3 2 2 2 2 3 3
11 11 11 11 10 8 9 9 9 9 9 9 8 7 5 5 5 4 5 5 4 4 4 4 4 4 3 3 3 2 2 2 1 1 1 2 1 1 1 1 1 2 2
10 10 10 10 9 9 9 9 8 8 8 8 7 6 5 5 5 4 4 3 3 3 3 3 3 3 3 2 3 3 2 1 1 1 1 1 0 1 0 0 0 1 1
9 8 9 9 9 9 9 9 8 8 7 6 6 5 5 4 4 3 2 2 3 2 2 3 3 3 2 2 2 2 2 1 1 1 1 0 2 1 1 1 1 1 2
9 8 8 8 8 8 8 7 7 7 8 7 7 6 5 5 4 3 3 3 3 4 4 4 4 3 3 2 2 2 2 2 2 2 2 2 2 2 2 2 2 3 3
9 9 8 7 7 7 7 7 6 6 7 7 7 5 5 5 4 4 4 4 4 5 4 5 4 3 3 2 2 2 3 3 3 4 4 4 6 5 3 3 2 3 3
9 9 9 8 8 8 8 7 7 6 7 7 6 6 6 6 5 5 5 5 5 5 5 5 5 5 3 4 5 5 4 4 5 4 4 6 7 9 10 10 8 6 5
8 8 7 8 8 8 9 8 7 7 7 7 6 6 6 7 6 6 6 6 5 5 6 5 5 5 5 6 6 7 5 5 5 5 5 5 6 7 6 9 11 10 10
8 7 7 6 7 8 8 9 8 8 8 8 7 6 7 7 7 7 7 6 5 6 6 6 5 5 5 6 7 8 7 7 6 5 5 6 5 6 6 7 8 7 6
9 7 7 8 8 9 9 10 9 8 8 8 7 7 7 8 9 8 7 6 7 7 6 5 5 5 5 7 8 8 6 6 6 6 6 6 6 7 8 8 7 7 6
10 9 10 10 10 9 9 10 8 8 7 7 7 7 8 8 8 8 7 6 7 7 6 6 6 5 5 7 8 7 5 6 6 6 6 8 8 8 8 6 6 6 4
11 11 11 10 9 9 10 10 9 8 7 7 8 8 8 8 8 8 7 7 7 8 7 7 6 6 6 7 8 8 5 6 6 5 5 5 9 10 10 8 6 5 4
11 12 11 10 8 9 10 10 9 8 8 9 9 8 8 7 8 8 7 7 7 7 6 6 6 6 6 7 8 10 9 7 7 5 4 5 10 10 10 8 8 9 7
11 10 12 11 8 8 10 11 8 8 9 9 9 9 8 7 6 7 7 6 5 6 5 5 5 5 5 6 10 11 11 10 7 5 7 8 10 9 8 10 10 7 5
11 10 11 11 9 8 9 10 10 9 10 10 8 8 8 8 7 6 5 5 5 5 5 5 5 4 4 4 4 5 6 8 8 6 8 10 10 8 7 7 6 4 4
9 9 10 10 9 9 9 9 10 10 10 9 9 8 8 8 8 7 6 5 3 3 5 4 5 5 4 2 4 5 5 5 5 6 5 5 5 5 5 5 5 4 4
9 10 10 10 9 9 9 9 9 10 11 9 8 7 6 6 6 7 7 12 8 9 9 7 6 4 6 7 8 9 10 10 10 7 5 4 4 4 3 4 4 4 4
Wind_Direction
180 170 170 170 169 169 168 169 169 173 165 162 161 161 176 182 185 190 192 191 190 187 181 184 186 177 179 189 185 180 197 220 189 66 321 309 280 252 242 226 214 214 216
172 171 170 174 177 177 176 173 176 176 176 177 173 169 168 183 190 194 194 196 195 193 191 181 188 190 187 194 193 180 180 229 175 155 133 324 326 305 262 245 224 219 216
179 177 175 181 179 182 182 181 180 179 181 175 164 155 139 152 190 200 204 205 201 200 200 194 190 197 190 198 203 191 182 210 237 181 162 181 244 294 308 276 247 229 220
182 180 178 181 184 186 183 179 178 180 183 177 177 177 183 196 208 204 202 205 205 204 206 202 197 198 198 201 211 200 192 189 228 241 212 196 181 198 294 311 288 257 238
183 184 184 185 185 182 180 179 178 182 186 187 186 187 197 204 205 198 200 204 207 207 207 203 198 198 201 209 214 208 203 197 207 216 220 226 216 199 204 270 293 298 261
183 184 184 178 176 175 178 179 182 189 189 190 189 192 197 199 199 203 202 207 206 208 207 202 200 205 205 209 213 215 214 214 215 217 208 200 205 211 203 232 259 271 276
179 179 177 176 177 178 180 181 185 193 191 191 193 194 197 195 199 202 200 199 203 211 217 213 209 211 213 215 212 218 226 220 221 224 224 219 220 208 200 215 244 256 276
182 183 182 180 182 180 179 183 187 194 195 195 197 195 193 195 203 203 196 198 205 215 215 212 214 216 213 218 210 222 230 228 228 235 228 228 233 218 206 201 205 255 287
181 182 180 181 182 180 180 187 190 193 196 198 195 195 195 195 199 199 193 198 206 212 209 209 215 217 213 213 206 223 234 228 225 229 229 234 239 229 223 206 194 196 240
174 175 177 180 181 180 179 179 187 193 195 195 197 200 199 198 194 189 196 199 202 204 194 205 210 212 210 202 196 206 217 199 220 218 225 238 241 226 220 218 210 194 202
162 163 168 170 167 165 166 173 184 187 186 188 190 193 193 189 184 190 204 200 192 190 187 197 198 195 197 189 176 189 189 183 223 236 207 232 213 202 235 233 216 199 178
149 151 149 149 152 156 169 175 184 185 186 183 178 183 181 178 183 195 202 189 178 179 180 176 169 171 170 165 167 177 183 182 190 228 164 233 162 92 48 49 129 178 163
127 131 133 138 150 159 164 173 178 177 174 168 167 167 163 163 170 179 173 151 139 133 127 132 129 134 136 135 151 156 154 143 143 132 111 83 96 92 80 89 85 88 90
125 125 130 142 151 154 153 155 156 154 151 152 157 158 157 158 158 151 132 121 117 110 102 102 113 125 128 127 135 137 136 112 96 89 90 84 89 113 117 98 95 100 92
129 135 141 142 140 138 139 141 138 138 141 144 149 149 135 126 123 119 115 108 104 103 100 97 96 103 110 111 120 125 130 114 92 70 63 69 75 75 83 90 94 104 102
141 144 143 142 143 142 137 132 129 132 135 136 137 126 117 115 109 105 102 97 97 93 88 86 88 83 89 90 98 106 100 96 95 84 70 69 67 69 69 70 72 84 102
139 143 145 142 143 139 135 130 129 123 118 118 117 115 118 116 112 113 105 101 99 94 88 84 85 82 73 79 92 100 98 92 92 91 86 81 69 64 74 68 63 61 67
143 143 142 135 126 123 119 116 114 114 113 110 108 108 113 117 113 108 105 106 103 96 90 86 84 84 76 85 95 95 89 89 86 83 86 90 75 70 78 79 67 58 52
145 138 133 127 119 116 116 113 110 109 111 113 113 112 114 113 110 109 109 107 101 92 87 86 83 84 75 83 92 98 93 88 78 74 78 86 83 71 79 84 78 64 48
127 122 118 114 114 117 117 111 111 110 112 114 112 110 110 111 113 112 107 102 99 96 91 80 72 76 75 82 88 99 99 93 84 73 64 70 78 74 74 83 86 78 55
124 122 120 120 122 121 116 113 111 111 112 108 104 103 104 107 109 107 104 104 101 95 88 79 66 60 64 78 86 91 96 103 95 84 69 62 72 73 71 77 82 89 82
124 124 121 117 115 117 116 114 115 115 110 106 104 102 101 106 109 108 104 103 106 100 93 85 71 52 52 67 78 84 86 95 98 95 83 75 74 72 70 71 71 73 70
127 123 122 119 116 115 119 121 122 118 111 105 104 100 94 90 99 108 111 107 105 105 101 97 89 71 57 62 74 81 83 86 91 93 89 81 75 70 65 63 66 67 66
128 127 125 125 124 121 117 122 123 118 113 108 103 99 97 89 81 83 93 104 108 113 113 110 107 95 75 66 64 73 81 81 82 83 77 72 67 63 58 53 49 51 68
129 131 132 131 132 127 121 123 124 122 116 111 106 100 97 99 87 74 64 85 87 128 134 136 136 127 114 110 112 110 102 102 104 97 76 64 61 57 49 45 42 41 47
133 130 129 131 133 130 127 128 128 129 126 122 118 115 113 108 106 101 80 56 66 79 95 110 120 105 118 121 107 101 102 101 104 93 84 74 73 72 64 59 44 37 40
Height
1534 1538 1541 1543 1546 1549 1551 1553 1555 1557 1559 1561 1562 1564 1565 1567 1568 1569 1571 1572 1573 1574 1574 1575 1576 1577 1578 1579 1579 1580 1581 1581 1581 1581 1581 1580 1580 1579 1579 1579 1579 1579 1579
1532 1535 1538 1540 1543 1546 1549 1551 1553 1555 1557 1559 1561 1562 1564 1566 1567 1568 1569 1570 1571 1572 1573 1573 1574 1575 1576 1577 1578 1578 1579 1579 1579 1579 1579 1578 1578 1577 1577 1577 1577 1576 1576
1527 1531 1534 1537 1540 1543 1546 1548 1551 1553 1555 1557 1559 1561 1562 1564 1565 1566 1566 1567 1568 1570 1570 1571 1572 1573 1574 1575 1575 1576 1576 1577 1577 1577 1577 1576 1575 1574 1574 1574 1574 1574 1574
1525 1527 1531 1534 1536 1540 1543 1546 1548 1551 1553 1554 1556 1557 1558 1559 1561 1563 1564 1565 1566 1567 1568 1569 1570 1571 1571 1572 1573 1573 1574 1574 1574 1574 1574 1575 1574 1573 1571 1571 1571 1571 1571
1520 1523 1526 1529 1533 1537 1541 1544 1546 1548 1550 1551 1553 1555 1556 1557 1559 1560 1561 1562 1564 1565 1565 1566 1567 1568 1569 1569 1570 1570 1571 1571 1571 1571 1571 1571 1571 1571 1570 1568 1568 1568 1568
1516 1520 1525 1529 1532 1536 1539 1542 1544 1545 1547 1548 1550 1552 1553 1555 1556 1557 1558 1560 1561 1562 1563 1563 1564 1565 1566 1566 1567 1567 1567 1567 1568 1568 1568 1568 1568 1567 1567 1566 1565 1564 1564
1513 1517 1522 1526 1529 1532 1535 1538 1541 1542 1544 1546 1548 1549 1551 1553 1554 1555 1556 1557 1558 1559 1560 1561 1561 1562 1562 1563 1563 1563 1563 1564 1564 1564 1564 1564 1564 1564 1563 1563 1562 1561 1561
1510 1514 1518 1522 1526 1529 1532 1535 1538 1539 1542 1544 1545 1547 1548 1550 1551 1552 1553 1554 1555 1556 1557 1557 1558 1558 1559 1559 1559 1560 1560 1560 1560 1560 1560 1560 1560 1560 1560 1559 1559 1558 1557
1507 1511 1515 1520 1523 1525 1528 1531 1534 1537 1539 1542 1543 1545 1546 1547 1548 1550 1551 1551 1552 1553 1553 1553 1554 1554 1555 1555 1556 1556 1556 1556 1556 1556 1555 1555 1555 1555 1556 1556 1556 1556 1554
1506 1509 1513 1516 1519 1523 1526 1529 1532 1535 1537 1539 1541 1542 1543 1544 1546 1547 1548 1548 1549 1549 1550 1550 1550 1551 1551 1552 1552 1552 1552 1552 1552 1551 1551 1551 1551 1551 1552 1552 1552 1551 1551
1506 1509 1512 1515 1519 1523 1526 1529 1531 1533 1535 1537 1538 1540 1541 1542 1543 1544 1545 1546 1546 1547 1547 1547 1547 1547 1548 1548 1549 1549 1549 1549 1549 1548 1548 1548 1548 1548 1548 1548 1548 1548 1548
1505 1508 1511 1514 1518 1522 1525 1527 1529 1531 1532 1535 1536 1538 1539 1540 1541 1541 1542 1543 1543 1544 1544 1545 1545 1545 1545 1546 1546 1546 1546 1546 1546 1546 1546 1545 1546 1545 1545 1545 1545 1545 1545
1506 1509 1512 1515 1517 1520 1523 1525 1527 1528 1530 1533 1535 1536 1537 1537 1538 1539 1540 1540 1541 1541 1542 1542 1542 1542 1543 1543 1543 1544 1544 1544 1544 1544 1544 1544 1544 1543 1543 1543 1543 1543 1543
1507 1510 1512 1515 1517 1519 1522 1524 1526 1528 1529 1531 1532 1533 1534 1535 1536 1537 1538 1538 1539 1539 1539 1540 1540 1540 1541 1542 1542 1542 1542 1542 1543 1543 1543 1543 1542 1542 1542 1542 1541 1541 1541
1507 1510 1512 1515 1517 1519 1521 1523 1525 1527 1527 1529 1530 1531 1532 1534 1534 1535 1536 1536 1537 1537 1537 1538 1539 1539 1539 1540 1541 1541 1540 1541 1541 1541 1541 1541 1541 1541 1541 1541 1540 1540 1540
1507 1509 1511 1513 1516 1518 1520 1522 1524 1525 1526 1527 1527 1529 1531 1532 1532 1534 1534 1535 1536 1536 1537 1537 1538 1538 1538 1539 1540 1540 1539 1540 1540 1540 1540 1541 1541 1540 1540 1540 1540 1540 1540
1507 1509 1511 1512 1514 1517 1519 1520 1522 1524 1525 1525 1526 1527 1529 1530 1531 1533 1534 1534 1535 1536 1536 1537 1537 1537 1538 1539 1539 1539 1539 1539 1540 1540 1540 1540 1540 1540 1539 1540 1540 1539 1539
1506 1508 1510 1512 1514 1516 1518 1520 1521 1523 1524 1525 1525 1527 1528 1529 1531 1532 1533 1533 1534 1535 1536 1537 1537 1537 1538 1539 1539 1539 1539 1539 1540 1540 1540 1540 1541 1541 1540 1540 1540 1540 1540
1505 1508 1510 1512 1514 1517 1518 1520 1521 1522 1523 1525 1526 1527 1529 1530 1531 1532 1533 1534 1534 1535 1536 1537 1538 1538 1539 1539 1539 1540 1540 1540 1540 1540 1541 1541 1541 1542 1541 1541 1541 1540 1541
1505 1508 1510 1512 1515 1517 1519 1520 1521 1522 1523 1525 1526 1528 1529 1530 1531 1532 1533 1534 1535 1536 1537 1537 1538 1539 1539 1540 1540 1541 1541 1540 1540 1541 1542 1542 1542 1543 1543 1542 1542 1541 1542
1506 1508 1511 1513 1515 1517 1518 1520 1521 1523 1524 1526 1527 1528 1530 1531 1532 1533 1534 1535 1536 1537 1538 1538 1539 1540 1540 1541 1541 1542 1542 1541 1542 1542 1543 1544 1544 1544 1544 1544 1544 1543 1544
1506 1508 1511 1513 1515 1517 1519 1520 1522 1524 1525 1527 1528 1529 1531 1532 1533 1534 1535 1536 1537 1538 1539 1540 1540 1541 1542 1543 1543 1543 1543 1543 1543 1544 1545 1545 1545 1545 1545 1546 1546 1546 1545
1506 1509 1511 1513 1516 1518 1519 1520 1522 1524 1526 1528 1529 1530 1532 1533 1535 1536 1536 1538 1539 1540 1540 1541 1541 1542 1543 1544 1544 1545 1545 1545 1545 1546 1546 1547 1547 1547 1547 1547 1547 1547 1547
1507 1509 1512 1514 1516 1518 1520 1521 1523 1525 1527 1528 1530 1531 1533 1534 1535 1537 1538 1539 1540 1541 1542 1542 1542 1543 1544 1545 1545 1546 1546 1547 1547 1548 1548 1548 1549 1549 1549 1549 1549 1548 1548
1508 1510 1512 1514 1517 1519 1521 1522 1524 1526 1527 1529 1531 1532 1534 1535 1536 1537 1539 1540 1541 1542 1543 1543 1544 1544 1545 1546 1547 1547 1548 1548 1549 1549 1550 1550 1550 1550 1550 1550 1550 1550 1549
1507 1510 1513 1515 1517 1519 1521 1523 1525 1527 1528 1530 1532 1533 1535 1536 1537 1538 1539 1541 1542 1543 1544 1545 1545 1546 1547 1547 1548 1549 1549 1550 1551 1552 1551 1551 1552 1552 1552 1552 1551 1551 1551